This is the latest recevied weather packets stored in our database for station/object KC8BSD. If no packets are shown the sender has not sent any weather packets the latest 10 day(s).
| Time | Temp. | Humidity | Pressure | Rain* | Wind** | Luminosity | Snow |
|---|---|---|---|---|---|---|---|
| 1777461985 | 8.33° C | 92% | 1015.4 hPa | 4.83 mm | - | 6 W/m² | - |
| 1777461682 | 8.33° C | 91% | 1015.3 hPa | 6.6 mm | - | 3 W/m² | - |
| 1777461382 | 8.89° C | 91% | 1015.3 hPa | 4.32 mm | - | 0 W/m² | - |
| 1777461078 | 8.89° C | 90% | 1015.2 hPa | 4.32 mm | - | 0 W/m² | - |
| 1777460774 | 8.89° C | 89% | 1015.4 hPa | 6.1 mm | - | 0 W/m² | - |
| 1777460470 | 8.89° C | 87% | 1015.4 hPa | 6.1 mm | - | 0 W/m² | - |
| 1777460165 | 8.89° C | 86% | 1015.7 hPa | 3.05 mm | - | 0 W/m² | - |
| 1777459863 | 9.44° C | 86% | 1015.7 hPa | 1.78 mm | - | 0 W/m² | - |
| 1777459560 | 9.44° C | 85% | 1015.5 hPa | 0 mm | - | 0 W/m² | - |
| 1777459257 | 9.44° C | 82% | 1015.1 hPa | 0 mm | - | 0 W/m² | - |
| 1777458955 | 9.44° C | 81% | 1014.9 hPa | 0 mm | - | 0 W/m² | - |
| 1777458652 | 9.44° C | 80% | 1014.6 hPa | 0 mm | - | 0 W/m² | - |
| 1777458348 | 9.44° C | 79% | 1014.3 hPa | 0 mm | - | 0 W/m² | - |
| 1777458044 | 10° C | 78% | 1014.2 hPa | 0 mm | - | 0 W/m² | - |
| 1777457740 | 9.44° C | 79% | 1014.2 hPa | 0 mm | - | 0 W/m² | - |
| 1777457434 | 9.44° C | 79% | 1013.8 hPa | 0 mm | - | 0 W/m² | - |
| 1777457130 | 9.44° C | 79% | 1013.6 hPa | 0 mm | - | 0 W/m² | - |
| 1777456826 | 9.44° C | 79% | 1013.9 hPa | 0 mm | - | 0 W/m² | - |
| 1777456526 | 10° C | 78% | 1013.8 hPa | 0 mm | - | 0 W/m² | - |
| 1777456222 | 10° C | 77% | 1014.1 hPa | 0 mm | - | 0 W/m² | - |
| 1777455917 | 10° C | 77% | 1013.9 hPa | 0 mm | - | 0 W/m² | - |
| 1777455615 | 10° C | 78% | 1013.4 hPa | 0 mm | - | 0 W/m² | - |
| 1777455311 | 10° C | 78% | 1013.8 hPa | 0 mm | - | 0 W/m² | - |
| 1777455009 | 10° C | 78% | 1013.7 hPa | 0 mm | - | 0 W/m² | - |
| 1777454705 | 10° C | 79% | 1014 hPa | 0 mm | - | 0 W/m² | - |
* Rain latest hour (hover to see other rain measurements)
** Current wind speed in m/s (hover to see current wind gust speed)